Weather History for KMMH - June, 2013

Change the Weather History Date:

Friday, June 28, 2013

  Actual Average (KBIH) Record (KBIH)
Temperature  
Mean Temperature 74 °F 75 °F  
Max Temperature 91 °F 96 °F 107 °F (2013)
Min Temperature 57 °F 54 °F 43 °F (1989)
Degree Days  
Heating Degree Days 0 0  
Month to date heating degree days 17  
Since 1 June heating degree days 17  
Since 1 July heating degree days 4175  
Cooling Degree Days 9 10  
Month to date cooling degree days 192  
Year to date cooling degree days 260  
Since 1 June cooling degree days 192  
Growing Degree Days 24 (Base 50)    
Moisture  
Dew Point 36 °F    
Average Humidity 28    
Maximum Humidity 51    
Minimum Humidity 11    
Precipitation  
Precipitation 0.00 in 0.00 in 0.12 in (1995)
Month to date precipitation 0.18  
Year to date precipitation 3.06  
Snow  
Snow 0.00 in 0.00 in - ()
Month to date snowfall 0.0  
Since 1 June snowfall 0.0  
Since 1 July snowfall 6.8  
Snow Depth -    
Sea Level Pressure  
Sea Level Pressure 30.39 in    
Wind  
Wind Speed 8 mph (WSW)    
Max Wind Speed 24 mph    
Max Gust Speed 33 mph    
Visibility 10 miles    
Events      
T = Trace of Precipitation, MM = Missing Value Source: NWS Daily Summary

Daily Weather History Graph

Daily Weather History Graph

Search for Another Location

Airport or City:

Trip Planner

Search our weather history database for the weather conditions in past years. The results will help you decide how hot, cold, wet, or windy it might be!

Date:

Astronomy

Jun. 28, 2013 Rise Set
Actual Time 5:36 AM PDT 8:20 PM PDT
Civil Twilight 5:05 AM PDT 8:52 PM PDT
Nautical Twilight 4:26 AM PDT 9:30 PM PDT
Astronomical Twilight 3:42 AM PDT 10:14 PM PDT
Moon No Moon Rise 11:41 AM PDT (6/28)
Length of Visible Light 15h 46m
Length of Day
14h 44m
Waning Gibbous, 65% of the Moon is Illuminated
Jun 28
Waning Gibbous
Jun 29
Last Quarter
Jul 8
New
Jul 15
First Quarter
Jul 22
Full

Hourly Weather History & Observations

Time (PDT) Temp. Dew Point Humidity Pressure Visibility Wind Dir Wind Speed Gust Speed Precip Events Conditions
12:15 AM 66.2 °F 37.4 °F 35% 30.45 in 10.0 mi West 9.2 mph - N/A   Clear
12:35 AM 68.0 °F 37.4 °F 33% 30.45 in 10.0 mi West 9.2 mph - N/A   Clear
12:55 AM 64.4 °F 39.2 °F 40% 30.45 in 10.0 mi West 12.7 mph - N/A   Clear
1:15 AM 62.6 °F 39.2 °F 42% 30.44 in 10.0 mi West 11.5 mph - N/A   Clear
1:35 AM 64.4 °F 39.2 °F 40% 30.45 in 10.0 mi NW 5.8 mph - N/A   Clear
1:55 AM 64.4 °F 39.2 °F 40% 30.45 in 10.0 mi West 9.2 mph - N/A   Clear
2:15 AM 62.6 °F 41.0 °F 45% 30.45 in 10.0 mi West 10.4 mph - N/A   Clear
2:35 AM 62.6 °F 41.0 °F 45% 30.44 in 10.0 mi WNW 6.9 mph - N/A   Clear
2:55 AM 59.0 °F 41.0 °F 51% 30.44 in 10.0 mi WNW 3.5 mph - N/A   Clear
3:15 AM 60.8 °F 41.0 °F 48% 30.43 in 10.0 mi West 6.9 mph - N/A   Clear
3:35 AM 60.8 °F 41.0 °F 48% 30.43 in 10.0 mi West 10.4 mph - N/A   Clear
3:55 AM 60.8 °F 39.2 °F 45% 30.43 in 10.0 mi West 9.2 mph - N/A   Clear
4:15 AM 59.0 °F 41.0 °F 51% 30.43 in 10.0 mi West 11.5 mph - N/A   Clear
4:35 AM 59.0 °F 41.0 °F 51% 30.43 in 10.0 mi WNW 6.9 mph - N/A   Clear
4:55 AM 60.8 °F 39.2 °F 45% 30.43 in 10.0 mi West 6.9 mph - N/A   Clear
5:55 AM 57.2 °F 39.2 °F 51% 30.43 in 10.0 mi West 5.8 mph - N/A   Clear
6:15 AM 59.0 °F 41.0 °F 51% 30.44 in 10.0 mi West 4.6 mph - N/A   Clear
6:35 AM 59.0 °F 41.0 °F 51% 30.43 in 10.0 mi West 11.5 mph - N/A   Clear
6:55 AM 60.8 °F 41.0 °F 48% 30.43 in 10.0 mi West 5.8 mph 17.3 mph N/A   Clear
7:15 AM 64.4 °F 42.8 °F 45% 30.44 in 10.0 mi WNW 3.5 mph - N/A   Clear
7:35 AM 68.0 °F 41.0 °F 37% 30.44 in 10.0 mi West 4.6 mph - N/A   Clear
7:55 AM 71.6 °F 41.0 °F 33% 30.44 in 10.0 mi WNW 4.6 mph - N/A   Clear
8:15 AM 75.2 °F 39.2 °F 27% 30.43 in 10.0 mi West 9.2 mph - N/A   Clear
8:35 AM 77.0 °F 37.4 °F 24% 30.44 in 10.0 mi NNW 3.5 mph - N/A   Clear
8:55 AM 78.8 °F 37.4 °F 23% 30.43 in 10.0 mi Calm Calm - N/A   Clear
9:15 AM 78.8 °F 35.6 °F 21% 30.43 in 10.0 mi Calm Calm - N/A   Clear
9:35 AM 80.6 °F 35.6 °F 20% 30.42 in 10.0 mi Calm Calm - N/A   Clear
9:55 AM 80.6 °F 35.6 °F 20% 30.42 in 10.0 mi Calm Calm - N/A   Clear
10:15 AM 82.4 °F 37.4 °F 20% 30.42 in 10.0 mi SSE 3.5 mph - N/A   Clear
10:35 AM 84.2 °F 35.6 °F 18% 30.41 in 10.0 mi SE 6.9 mph - N/A   Clear
10:55 AM 86.0 °F 33.8 °F 15% 30.40 in 10.0 mi East 10.4 mph - N/A   Clear
11:15 AM 86.0 °F 33.8 °F 15% 30.40 in 10.0 mi ESE 8.1 mph - N/A   Clear
11:35 AM 86.0 °F 32.0 °F 14% 30.40 in 10.0 mi East 8.1 mph 19.6 mph N/A   Clear
11:55 AM 87.8 °F 32.0 °F 14% 30.40 in 10.0 mi East 13.8 mph 19.6 mph N/A   Clear
12:15 PM 87.8 °F 33.8 °F 15% 30.39 in 10.0 mi East 13.8 mph 21.9 mph N/A   Clear
12:35 PM 89.6 °F 32.0 °F 13% 30.38 in 10.0 mi East 15.0 mph 24.2 mph N/A   Clear
12:55 PM 89.6 °F 32.0 °F 13% 30.38 in 10.0 mi ESE 15.0 mph 26.5 mph N/A   Clear
1:15 PM 89.6 °F 32.0 °F 13% 30.37 in 10.0 mi ESE 13.8 mph 24.2 mph N/A   Clear
1:35 PM 91.4 °F 33.8 °F 13% 30.37 in 10.0 mi ESE 10.4 mph 20.7 mph N/A   Clear
1:55 PM 89.6 °F 32.0 °F 13% 30.36 in 10.0 mi SE 4.6 mph 21.9 mph N/A   Clear
2:15 PM 86.0 °F 32.0 °F 14% 30.35 in 10.0 mi East 8.1 mph 19.6 mph N/A   Clear
2:35 PM 86.0 °F 32.0 °F 14% 30.35 in 10.0 mi Calm Calm - N/A   Scattered Clouds
2:55 PM 86.0 °F 33.8 °F 15% 30.34 in 10.0 mi South 6.9 mph - N/A   Mostly Cloudy
3:15 PM 86.0 °F 32.0 °F 14% 30.34 in 10.0 mi South 4.6 mph - N/A   Scattered Clouds
3:35 PM 84.2 °F 33.8 °F 16% 30.34 in 10.0 mi West 12.7 mph - N/A   Scattered Clouds
3:55 PM 82.4 °F 30.2 °F 15% 30.34 in 10.0 mi WSW 11.5 mph 19.6 mph N/A   Scattered Clouds
4:15 PM 82.4 °F 26.6 °F 13% 30.33 in 10.0 mi WSW 8.1 mph 18.4 mph N/A   Mostly Cloudy
4:35 PM 82.4 °F 32.0 °F 16% 30.34 in 10.0 mi WSW 11.5 mph 21.9 mph N/A   Mostly Cloudy
4:55 PM 82.4 °F 32.0 °F 16% 30.35 in 10.0 mi SSE 24.2 mph 32.2 mph N/A   Mostly Cloudy
5:15 PM 82.4 °F 24.8 °F 12% 30.33 in 10.0 mi NW 10.4 mph 33.4 mph N/A   Mostly Cloudy
5:35 PM 80.6 °F 24.8 °F 13% 30.37 in 10.0 mi North - - N/A   Overcast
5:55 PM 82.4 °F 23.0 °F 11% 30.32 in 10.0 mi East 11.5 mph 24.2 mph N/A   Mostly Cloudy
6:15 PM 80.6 °F 26.6 °F 14% 30.33 in 10.0 mi SW 15.0 mph - N/A   Scattered Clouds
6:35 PM 80.6 °F 28.4 °F 15% 30.33 in 10.0 mi West 6.9 mph 26.5 mph N/A   Scattered Clouds
6:55 PM 82.4 °F 32.0 °F 16% 30.32 in 10.0 mi SW 8.1 mph - N/A   Scattered Clouds
7:15 PM 80.6 °F 39.2 °F 23% 30.33 in 10.0 mi West 16.1 mph 21.9 mph N/A   Clear
7:35 PM 80.6 °F 35.6 °F 20% 30.33 in 10.0 mi SW 11.5 mph - N/A   Clear
7:55 PM 78.8 °F 39.2 °F 24% 30.33 in 10.0 mi SSW 15.0 mph 25.3 mph N/A   Clear
8:15 PM 77.0 °F 39.2 °F 26% 30.35 in 10.0 mi South 13.8 mph 23.0 mph N/A   Clear
8:35 PM 77.0 °F 42.8 °F 29% 30.34 in 10.0 mi SSW 16.1 mph 31.1 mph N/A   Clear
8:55 PM 77.0 °F 32.0 °F 19% 30.34 in 10.0 mi SSW 17.3 mph 21.9 mph N/A   Clear
9:15 PM 75.2 °F 41.0 °F 29% 30.33 in 10.0 mi NW 8.1 mph 19.6 mph N/A   Clear
9:35 PM 73.4 °F 41.0 °F 31% 30.35 in 10.0 mi Calm Calm - N/A   Scattered Clouds
9:55 PM 71.6 °F 41.0 °F 33% 30.35 in 10.0 mi West 8.1 mph - N/A   Clear
10:15 PM 71.6 °F 39.2 °F 31% 30.35 in 10.0 mi Calm Calm - N/A   Clear
10:35 PM 68.0 °F 39.2 °F 35% 30.36 in 10.0 mi WNW 8.1 mph - N/A   Clear
10:55 PM 64.4 °F 39.2 °F 40% 30.36 in 10.0 mi Calm Calm - N/A   Clear
11:15 PM 62.6 °F 39.2 °F 42% 30.36 in 10.0 mi Calm Calm - N/A   Clear
11:35 PM 62.6 °F 37.4 °F 39% 30.36 in 10.0 mi Calm Calm - N/A   Clear
11:55 PM 60.8 °F 37.4 °F 42% 30.37 in 10.0 mi ESE 5.8 mph - N/A   Clear